Location: ???????
(55.4362°N, 38.1183°E)
Time: 00:52:16
(UTC+00:00)

USA 238 - Pass Details

Date: 17 June 2021
Orbit: 989 x 1223 km, 63.4° (Epoch: 16 July)

Event Time Altitude Azimuth Distance (km) Brightness Sun altitude
Rises 19:15:01 0° 240° (WSW) 3,747 6.6 -6.2°
Reaches altitude 10° 19:17:34 10° 242° (WSW) 2,821 6.0 -6.4°
Maximum altitude 19:24:14 72° 327° (NNW) 1,120 4.1 -6.8°
Drops below altitude 10° 19:31:19 10° 53° (NE) 2,993 6.2 -7.3°
Sets 19:34:06 0° 55° (NE) 3,989 6.8 -7.5°
